カタログに戻る

RISAT 1

運用中科学PO
NORAD 38248·PAYLOAD·🇮🇳 India

打ち上げ Apr 26, 2012 から Satish Dhawan Space Centre

Loading…

次のパス (今後24時間)

TLE

最新Source: Space-Track

元期: Sep 13, 2026, 16:50 UTC

1 38248U 12017A   26256.70207020  .00082649  00000-0  48658-3 0  9998
2 38248  97.4222 310.1750 0003606 149.0238 211.1241 15.77965338795986

AllMySatでRISAT 1をリアルタイム追跡

Download on the App Store